FW7044 Weather Reports


Display with metric or nautical units.
time (UTC)temp
F
wind
direction
speed
MPH
gust
MPH
rain 1hr
in
rain 24hr
in
rain mn
in
humidity
%
barometer
mb
20260503005511 78 228 1.0 1.0 0.00 0.00 0.00 81 1012.2
20260503005009 78 326 0.0 0.0 0.00 0.00 0.00 81 1012.4
20260503004504 78 318 0.0 0.0 0.00 0.00 0.00 81 1012.3
20260503004003 79 269 0.0 0.0 0.00 0.00 0.00 80 1012.2
20260503003459 79 270 0.0 0.0 0.00 0.00 0.00 80 1012.0
20260503002956 79 210 2.0 2.0 0.00 0.00 0.00 79 1012.0
20260503002453 79 284 0.0 0.0 0.00 0.00 0.00 79 1012.1
20260503001949 79 216 2.0 2.0 0.00 0.00 0.00 79 1012.0
20260503001446 79 323 0.0 0.0 0.00 0.00 0.00 79 1012.5
20260503000944 80 248 1.0 1.0 0.00 0.00 0.00 78 1012.4
20260503000441 80 311 1.0 1.0 0.00 0.00 0.00 78 1012.3
20260502235938 80 264 1.0 1.0 0.00 0.00 0.00 78 1012.2
20260502235435 80 290 0.0 1.0 0.00 0.00 0.00 77 1012.0
20260502234932 80 49 1.0 1.0 0.00 0.00 0.00 77 1012.3
20260502234428 80 303 1.0 2.0 0.00 0.00 0.00 77 1012.2
20260502233926 80 312 0.0 0.0 0.00 0.00 0.00 76 1012.6
20260502233421 80 308 1.0 2.0 0.00 0.00 0.00 76 1012.8
20260502232918 80 311 1.0 2.0 0.00 0.00 0.00 75 1012.9
20260502232414 81 247 3.0 3.0 0.00 0.00 0.00 73 1012.4
20260502231912 81 293 2.0 3.0 0.00 0.00 0.00 72 1012.4
20260502231409 82 297 2.0 2.0 0.00 0.00 0.00 70 1012.5
20260502230907 82 312 2.0 2.0 0.00 0.00 0.00 70 1012.5
20260502230405 82 287 1.0 1.0 0.00 0.00 0.00 70 1012.6
20260502225902 82 306 0.0 0.0 0.00 0.00 0.00 69 1011.9
20260502225358 82 298 1.0 1.0 0.00 0.00 0.00 69 1011.7
20260502224855 82 314 1.0 2.0 0.00 0.00 0.00 68 1011.7
20260502224351 82 313 2.0 2.0 0.00 0.00 0.00 67 1011.5
20260502223849 82 323 0.0 1.0 0.00 0.00 0.00 67 1011.5
20260502223347 82 331 1.0 1.0 0.00 0.00 0.00 67 1011.3
20260502222844 82 301 2.0 2.0 0.00 0.00 0.00 66 1011.3
20260502222342 83 328 3.0 3.0 0.00 0.00 0.00 65 1011.2
20260502221837 84 259 2.0 3.0 0.00 0.00 0.00 66 1011.1
20260502221334 84 331 2.0 2.0 0.00 0.00 0.00 65 1011.2
20260502220831 85 280 5.0 7.0 0.00 0.00 0.00 66 1011.2
20260502220327 86 314 4.0 7.0 0.00 0.00 0.00 67 1011.1
20260502215823 87 323 0.0 0.0 0.00 0.00 0.00 68 1010.8
20260502215321 87 311 1.0 1.0 0.00 0.00 0.00 68 1011.0
20260502214818 88 310 0.0 1.0 0.00 0.00 0.00 68 1010.8
20260502214315 88 13 3.0 3.0 0.00 0.00 0.00 67 1010.9
20260502213812 88 327 0.0 0.0 0.00 0.00 0.00 66 1011.1
20260502213309 89 331 1.0 2.0 0.00 0.00 0.00 64 1010.7
20260502212808 89 345 3.0 5.0 0.00 0.00 0.00 65 1011.1
20260502212306 89 279 1.0 2.0 0.00 0.00 0.00 65 1010.8
20260502211802 89 339 2.0 2.0 0.00 0.00 0.00 65 1011.0
20260502211258 91 296 1.0 1.0 0.00 0.00 0.00 64 1010.6
20260502210755 91 320 0.0 0.0 0.00 0.00 0.00 63 1010.7
20260502210253 91 299 2.0 3.0 0.00 0.00 0.00 60 1010.5
20260502205750 91 288 1.0 1.0 0.00 0.00 0.00 59 1010.7
20260502205246 91 287 3.0 5.0 0.00 0.00 0.00 59 1010.6
20260502204743 92 300 0.0 1.0 0.00 0.00 0.00 58 1010.7
20260502204240 92 298 3.0 5.0 0.00 0.00 0.00 57 1010.6
20260502203738 93 318 1.0 2.0 0.00 0.00 0.00 56 1010.6
20260502203230 93 305 0.0 0.0 0.00 0.00 0.00 57 1010.4
20260502202724 93 302 0.0 0.0 0.00 0.00 0.00 57 1010.5
20260502202223 93 306 2.0 2.0 0.00 0.00 0.00 57 1010.5
20260502201719 93 286 1.0 1.0 0.00 0.00 0.00 58 1010.4
20260502201216 92 298 2.0 2.0 0.00 0.00 0.00 56 1010.4
20260502200712 92 297 2.0 2.0 0.00 0.00 0.00 56 1010.6
20260502200208 92 307 5.0 6.0 0.00 0.00 0.00 56 1010.6
20260502195707 93 315 2.0 2.0 0.00 0.00 0.00 56 1010.7
20260502195203 93 326 2.0 2.0 0.00 0.00 0.00 56 1010.6
20260502194700 93 280 1.0 1.0 0.00 0.00 0.00 54 1010.7
20260502194156 94 302 3.0 6.0 0.00 0.00 0.00 51 1010.9
20260502193653 94 251 4.0 5.0 0.00 0.00 0.00 51 1010.9
20260502193150 95 313 3.0 3.0 0.00 0.00 0.00 50 1010.8
20260502192645 95 320 3.0 5.0 0.00 0.00 0.00 50 1010.9
20260502192143 95 285 6.0 8.0 0.00 0.00 0.00 48 1010.8
20260502191639 95 236 5.0 7.0 0.00 0.00 0.00 53 1011.0
20260502191137 94 274 3.0 5.0 0.00 0.00 0.00 56 1010.9
20260502190634 94 271 3.0 5.0 0.00 0.00 0.00 54 1011.0
20260502190132 94 279 5.0 7.0 0.00 0.00 0.00 53 1010.9
20260502185626 95 289 2.0 2.0 0.00 0.00 0.00 54 1010.9
20260502185124 95 202 3.0 6.0 0.00 0.00 0.00 53 1011.0
20260502184620 94 260 4.0 5.0 0.00 0.00 0.00 54 1011.0
20260502184115 94 217 5.0 10.0 0.00 0.00 0.00 54 1011.0
20260502183612 94 302 4.0 6.0 0.00 0.00 0.00 53 1011.0
20260502183108 94 293 3.0 3.0 0.00 0.00 0.00 53 1011.0
20260502182603 94 294 3.0 5.0 0.00 0.00 0.00 55 1011.1
20260502182059 93 275 3.0 8.0 0.00 0.00 0.00 54 1010.8
20260502181557 94 235 3.0 6.0 0.00 0.00 0.00 55 1011.0
20260502181056 94 205 5.0 7.0 0.00 0.00 0.00 55 1011.0
20260502180552 94 290 5.0 8.0 0.00 0.00 0.00 54 1011.1
20260502170506 91 302 3.0 5.0 0.00 0.00 0.00 64 1011.6
20260502163949 92 92 3.0 5.0 0.00 0.00 0.00 62 1011.6
20260502163445 92 246 3.0 5.0 0.00 0.00 0.00 62 1011.7
20260502162943 92 230 4.0 5.0 0.00 0.00 0.00 64 1011.9
20260502162439 92 236 2.0 3.0 0.00 0.00 0.00 63 1012.0
20260502161936 91 278 5.0 7.0 0.00 0.00 0.00 63 1012.0
20260502161432 93 269 7.0 9.0 0.00 0.00 0.00 63 1012.0
20260502160931 93 226 3.0 7.0 0.00 0.00 0.00 61 1011.9
20260502160428 92 236 7.0 9.0 0.00 0.00 0.00 62 1012.0
20260502151907 89 206 3.0 5.0 0.00 0.00 0.00 72 1012.2
20260502151403 88 281 2.0 3.0 0.00 0.00 0.00 74 1012.2
20260502150901 88 294 3.0 6.0 0.00 0.00 0.00 75 1012.4
20260502150357 88 285 1.0 2.0 0.00 0.00 0.00 75 1012.3
20260502130745 81 223 3.0 3.0 0.00 0.00 0.00 83 1011.9
20260502130243 81 260 1.0 2.0 0.00 0.00 0.00 85 1011.9
20260502123729 78 180 2.0 2.0 0.00 0.00 0.00 87 1012.1
20260502123225 77 298 2.0 3.0 0.00 0.00 0.00 88 1012.1
20260502122722 76 191 2.0 2.0 0.00 0.00 0.00 91 1012.2
20260502122218 75 317 0.0 1.0 0.00 0.00 0.00 95 1012.1
20260502121717 74 27 1.0 1.0 0.00 0.00 0.00 98 1012.0
20260502121214 74 274 0.0 0.0 0.00 0.00 0.00 99 1011.9
20260502120710 74 258 1.0 1.0 0.00 0.00 0.00 99 1011.9
20260502120207 73 208 1.0 2.0 0.00 0.00 0.00 99 1011.9
20260502115705 73 277 1.0 1.0 0.00 0.00 0.00 99 1011.9
20260502115201 73 273 1.0 1.0 0.00 0.00 0.00 99 1012.0
20260502114657 73 298 0.0 1.0 0.00 0.00 0.00 99 1011.9
20260502114155 72 276 0.0 0.0 0.00 0.00 0.00 99 1011.8
20260502113652 72 215 1.0 2.0 0.00 0.00 0.00 99 1011.8
20260502113150 72 290 1.0 2.0 0.00 0.00 0.00 99 1011.8
20260502112648 72 195 2.0 2.0 0.00 0.00 0.00 99 1012.0
20260502112145 72 263 1.0 1.0 0.00 0.00 0.00 99 1011.8
20260502111642 71 209 4.0 5.0 0.00 0.00 0.00 99 1012.1
20260502111140 71 275 1.0 1.0 0.00 0.00 0.00 99 1011.9
20260502110637 71 269 1.0 1.0 0.00 0.00 0.00 99 1011.9
20260502110134 71 274 0.0 0.0 0.00 0.00 0.00 99 1012.1
20260502105632 71 279 0.0 0.0 0.00 0.00 0.00 99 1011.9
20260502105129 70 288 0.0 0.0 0.00 0.00 0.00 99 1012.0
20260502104626 70 294 0.0 0.0 0.00 0.00 0.00 99 1012.0
20260502104123 70 220 0.0 0.0 0.00 0.00 0.00 99 1011.9
20260502103621 70 299 0.0 0.0 0.00 0.00 0.00 99 1011.9
20260502103119 70 279 0.0 0.0 0.00 0.00 0.00 99 1011.9
20260502102615 69 273 0.0 0.0 0.00 0.00 0.00 99 1011.7
20260502102112 69 273 0.0 0.0 0.00 0.00 0.00 99 1011.8
20260502101610 69 273 0.0 0.0 0.00 0.00 0.00 99 1011.7
20260502101108 69 273 0.0 0.0 0.00 0.00 0.00 99 1011.8
20260502100606 69 273 0.0 0.0 0.00 0.00 0.00 99 1011.8
20260502100104 69 279 0.0 0.0 0.00 0.00 0.00 99 1011.8
20260502091038 70 285 0.0 0.0 0.00 0.00 0.00 98 1011.9
20260502090535 70 285 0.0 0.0 0.00 0.00 0.00 98 1012.1
20260502071429 72 291 0.0 0.0 0.00 0.00 0.00 94 1011.8
20260502070928 73 291 0.0 0.0 0.00 0.00 0.00 93 1011.9
20260502070425 73 291 0.0 0.0 0.00 0.00 0.00 93 1011.8
20260502065924 73 291 0.0 0.0 0.00 0.00 0.00 93 1011.5
20260502065422 73 291 0.0 0.0 0.00 0.00 0.00 93 1011.8
20260502064920 73 292 0.0 0.0 0.00 0.00 0.00 92 1011.7
20260502064417 73 292 0.0 0.0 0.00 0.00 0.00 92 1011.8
20260502063914 73 292 0.0 0.0 0.00 0.00 0.00 91 1011.8
20260502063412 74 291 0.0 0.0 0.00 0.00 0.00 91 1011.7
20260502062909 74 293 0.0 0.0 0.00 0.00 0.00 90 1011.7
20260502062406 75 293 0.0 0.0 0.00 0.00 0.00 90 1011.7
20260502061905 75 293 0.0 0.0 0.00 0.00 0.00 88 1011.7
20260502061403 75 293 0.0 0.0 0.00 0.00 0.00 88 1011.8
20260502060858 75 299 0.0 0.0 0.00 0.00 0.00 88 1011.8
20260502060353 75 303 0.0 0.0 0.00 0.00 0.00 87 1012.1
20260502055851 76 278 0.0 1.0 0.00 0.00 0.00 86 1011.8
20260502055349 76 275 0.0 1.0 0.00 0.00 0.00 86 1012.1
20260502054848 76 289 0.0 0.0 0.00 0.00 0.00 86 1011.9
20260502054345 76 281 1.0 1.0 0.00 0.00 0.00 86 1012.1
20260502053843 76 298 0.0 0.0 0.00 0.00 0.00 86 1012.3
20260502053340 76 289 1.0 1.0 0.00 0.00 0.00 87 1012.2
20260502052837 76 309 1.0 1.0 0.00 0.00 0.00 87 1012.3
20260502052335 76 291 0.0 0.0 0.00 0.00 0.00 86 1012.1
20260502051833 77 287 0.0 0.0 0.00 0.00 0.00 86 1012.2
20260502051332 77 310 0.0 0.0 0.00 0.00 0.00 86 1012.2
20260502050827 77 297 0.0 0.0 0.00 0.00 0.00 86 1012.5
20260502050324 77 335 0.0 0.0 0.00 0.00 0.00 86 1012.4
20260502045821 77 205 0.0 1.0 0.00 0.00 0.00 86 1012.3
20260502045318 77 262 1.0 1.0 0.00 0.00 0.00 86 1012.3
20260502044815 77 280 0.0 0.0 0.00 0.00 0.00 85 1012.6
20260502044311 77 291 0.0 0.0 0.00 0.00 0.00 85 1012.4
20260502043808 77 228 3.0 3.0 0.00 0.00 0.00 84 1012.8
20260502043306 78 238 1.0 1.0 0.00 0.00 0.00 84 1012.8
20260502042805 78 303 0.0 0.0 0.00 0.00 0.00 83 1012.5
20260502042305 78 279 0.0 0.0 0.00 0.00 0.00 83 1012.7
20260502041800 78 298 0.0 0.0 0.00 0.00 0.00 82 1012.4
20260502041257 78 299 0.0 0.0 0.00 0.00 0.00 82 1012.5
20260502040754 78 305 0.0 0.0 0.00 0.00 0.00 83 1012.6
20260502040251 78 244 1.0 1.0 0.00 0.00 0.00 85 1012.5
20260502035747 78 284 1.0 2.0 0.00 0.00 0.00 84 1012.4
20260502035244 78 263 1.0 1.0 0.00 0.00 0.00 85 1012.6
20260502034741 78 251 2.0 2.0 0.00 0.00 0.00 86 1012.4
20260502034239 78 219 3.0 3.0 0.00 0.00 0.00 87 1012.6
20260502033737 78 216 1.0 2.0 0.00 0.00 0.00 87 1012.7
20260502033235 78 260 0.0 1.0 0.00 0.00 0.00 87 1012.7
20260502032731 78 235 1.0 1.0 0.00 0.00 0.00 87 1012.6
20260502032227 78 226 1.0 1.0 0.00 0.00 0.00 86 1012.5
20260502031726 78 265 0.0 0.0 0.00 0.00 0.00 86 1012.5
20260502031223 78 221 0.0 0.0 0.00 0.00 0.00 86 1012.4
20260502030722 78 204 1.0 3.0 0.00 0.00 0.00 86 1012.6
20260502030219 78 226 2.0 2.0 0.00 0.00 0.00 87 1012.5
20260502025716 78 228 2.0 2.0 0.00 0.00 0.00 88 1012.3
20260502025214 78 225 2.0 2.0 0.00 0.00 0.00 89 1012.5
20260502024712 78 261 0.0 0.0 0.00 0.00 0.00 90 1012.5
20260502024209 78 269 0.0 0.0 0.00 0.00 0.00 90 1012.4
20260502023707 78 293 0.0 0.0 0.00 0.00 0.00 89 1012.7
20260502023204 78 307 0.0 0.0 0.00 0.00 0.00 89 1012.6
20260502022702 78 214 1.0 2.0 0.00 0.00 0.00 90 1012.6
20260502022158 78 295 0.0 0.0 0.00 0.00 0.00 89 1012.4
20260502021655 79 295 0.0 0.0 0.00 0.00 0.00 88 1012.4
20260502021153 79 292 1.0 1.0 0.00 0.00 0.00 87 1012.3
20260502020650 80 280 0.0 0.0 0.00 0.00 0.00 86 1012.3
20260502020146 80 172 1.0 2.0 0.00 0.00 0.00 86 1012.0
20260502015644 80 249 0.0 0.0 0.00 0.00 0.00 85 1011.9
20260502015140 80 186 2.0 2.0 0.00 0.00 0.00 85 1011.9
20260502014638 80 201 1.0 2.0 0.00 0.00 0.00 84 1011.9
20260502014135 80 97 1.0 1.0 0.00 0.00 0.00 84 1011.7
20260502013631 80 197 0.0 0.0 0.00 0.00 0.00 83 1011.7
20260502013126 80 190 0.0 1.0 0.00 0.00 0.00 82 1011.6
20260502012624 81 200 2.0 2.0 0.00 0.00 0.00 82 1011.5
20260502012122 81 183 0.0 0.0 0.00 0.00 0.00 82 1011.6
20260502011619 80 100 1.0 1.0 0.00 0.00 0.00 82 1011.6
20260502011114 80 237 0.0 0.0 0.00 0.00 0.00 83 1011.3
20260502010612 80 309 0.0 0.0 0.00 0.00 0.00 83 1011.5
20260502010108 81 197 0.0 0.0 0.00 0.00 0.00 83 1011.3